Weather History for KSDF - January, 2014

Change the Weather History Date:

Saturday, January 25, 2014

  Actual Average Record
Temperature  
Mean Temperature 29 °F 35 °F  
Max Temperature 40 °F 43 °F 77 °F (1950)
Min Temperature 18 °F 27 °F -6 °F (1963)
Degree Days  
Heating Degree Days 36 30  
Month to date heating degree days 884 750  
Since 1 July heating degree days 2525 2326  
Cooling Degree Days 0 0  
Month to date cooling degree days 0 0  
Year to date cooling degree days 0 0  
Moisture  
Dew Point 16 °F    
Average Humidity 58    
Maximum Humidity 88    
Minimum Humidity 28    
Precipitation  
Precipitation 0.12 in 0.10 in 1.10 in (1976)
Month to date precipitation 2.41 2.60  
Year to date precipitation 2.41 2.60  
Snow  
Snow 2.40 in 0.10 in 6.40 in (1907)
Month to date snowfall 8.3 2.8  
Since 1 July snowfall 14.1 5.6  
Snow Depth 3.00 in    
Sea Level Pressure  
Sea Level Pressure 29.76 in    
Wind  
Wind Speed 17 mph (SW)    
Max Wind Speed 41 mph    
Max Gust Speed 55 mph    
Visibility 6 miles    
Events Snow    
T = Trace of Precipitation, MM = Missing Value Source: NWS Daily Summary

Daily Weather History Graph

Daily Weather History Graph

Search for Another Location

Airport or City:

Trip Planner

Search our weather history database for the weather conditions in past years. The results will help you decide how hot, cold, wet, or windy it might be!

Date:

Astronomy

Jan. 25, 2014 Rise Set
Actual Time 7:53 AM EST 5:57 PM EST
Civil Twilight 7:24 AM EST 6:26 PM EST
Nautical Twilight 6:52 AM EST 6:58 PM EST
Astronomical Twilight 6:21 AM EST 7:29 PM EST
Moon 2:24 AM EST (1/25) 12:57 PM EST (1/25)
Length of Visible Light 11h 01m
Length of Day
10h 04m
Waning Crescent, 34% of the Moon is Illuminated
Jan 25
Waning Crescent
Jan 30
New
Feb 6
First Quarter
Feb 14
Full
Feb 22
Last Quarter

Hourly Weather History & Observations

Time (EST) Temp. Windchill Dew Point Humidity Pressure Visibility Wind Dir Wind Speed Gust Speed Precip Events Conditions
12:56 AM 26.1 °F 11.6 °F 3.0 °F 37% 29.93 in 10.0 mi SSW 21.9 mph 29.9 mph N/A   Overcast
1:56 AM 26.1 °F 13.6 °F 6.1 °F 43% 29.90 in 10.0 mi SW 16.1 mph 40.3 mph 0.00 in Snow Light Snow
2:56 AM 27.0 °F 14.3 °F 7.0 °F 43% 29.83 in 9.0 mi SW 17.3 mph 29.9 mph 0.00 in Snow Light Snow
3:56 AM 26.1 °F 11.6 °F 12.9 °F 58% 29.80 in 7.0 mi SW 21.9 mph 31.1 mph 0.00 in Snow Light Snow
4:56 AM 25.0 °F 11.7 °F 16.0 °F 69% 29.76 in 4.0 mi SSW 17.3 mph 21.9 mph 0.00 in Snow Light Snow
5:01 AM 24.8 °F 12.4 °F 17.6 °F 74% 29.74 in 2.0 mi SSW 15.0 mph 24.2 mph 0.00 in Snow Light Snow
5:08 AM 24.8 °F 13.4 °F 17.6 °F 74% 29.74 in 1.5 mi SSW 12.7 mph 24.2 mph 0.00 in Snow Light Snow
5:18 AM 24.8 °F 11.9 °F 19.4 °F 80% 29.73 in 0.8 mi SSW 16.1 mph - 0.01 in Snow Light Snow
5:34 AM 24.8 °F 15.3 °F 21.2 °F 86% 29.73 in 0.8 mi SSW 9.2 mph 20.7 mph 0.02 in Snow Light Snow
5:56 AM 24.1 °F 12.5 °F 21.0 °F 88% 29.74 in 0.8 mi South 12.7 mph - 0.04 in Snow Light Snow
6:45 AM 24.8 °F 13.4 °F 21.2 °F 86% 29.71 in 1.0 mi SSW 12.7 mph - 0.04 in Snow Light Snow
6:56 AM 24.1 °F 12.0 °F 21.0 °F 88% 29.73 in 1.0 mi SSW 13.8 mph 19.6 mph 0.05 in Snow Light Snow
7:01 AM 24.8 °F 12.4 °F 21.2 °F 86% 29.71 in 0.8 mi SSW 15.0 mph 24.2 mph 0.00 in Snow Light Snow
7:07 AM 24.8 °F 14.0 °F 21.2 °F 86% 29.71 in 0.8 mi SSW 11.5 mph 24.2 mph 0.01 in Snow Light Snow
7:21 AM 24.8 °F 12.4 °F 21.2 °F 86% 29.70 in 1.0 mi SSW 15.0 mph 21.9 mph 0.01 in Snow Light Snow
7:24 AM 24.8 °F 14.0 °F 21.2 °F 86% 29.70 in 1.2 mi SSW 11.5 mph 21.9 mph 0.02 in Snow Light Snow
7:29 AM 24.8 °F 12.4 °F 21.2 °F 86% 29.70 in 1.8 mi SW 15.0 mph 20.7 mph 0.02 in Snow Light Snow
7:33 AM 24.8 °F 12.9 °F 21.2 °F 86% 29.70 in 2.0 mi SSW 13.8 mph 21.9 mph 0.02 in Snow Light Snow
7:42 AM 24.8 °F 12.9 °F 21.2 °F 86% 29.70 in 2.5 mi SW 13.8 mph 21.9 mph 0.02 in Snow Light Snow
7:56 AM 25.0 °F 12.2 °F 21.0 °F 85% 29.71 in 3.0 mi SW 16.1 mph 21.9 mph 0.02 in Snow Light Snow
7:58 AM 24.8 °F 11.9 °F 21.2 °F 86% 29.70 in 1.0 mi SW 16.1 mph 23.0 mph 0.00 in Snow Light Snow
8:09 AM 24.8 °F 11.9 °F 21.2 °F 86% 29.70 in 0.8 mi SW 16.1 mph - 0.00 in Snow Light Snow
8:29 AM 24.8 °F 12.9 °F 21.2 °F 86% 29.69 in 1.5 mi SW 13.8 mph - 0.00 in Snow Light Snow
8:36 AM 26.6 °F 13.4 °F 21.2 °F 80% 29.69 in 1.8 mi SW 18.4 mph 24.2 mph 0.00 in Snow Light Snow
8:40 AM 26.6 °F 13.8 °F 21.2 °F 80% 29.69 in 2.0 mi SW 17.3 mph 28.8 mph 0.01 in Snow Light Snow
8:49 AM 26.6 °F 13.1 °F 21.2 °F 80% 29.69 in 1.8 mi SW 19.6 mph 28.8 mph 0.01 in Snow Light Snow
8:56 AM 26.1 °F 13.1 °F 21.9 °F 84% 29.71 in 1.2 mi SW 17.3 mph 26.5 mph 0.01 in Snow Light Snow
9:00 AM 26.6 °F 14.3 °F 21.2 °F 80% 29.69 in 3.0 mi WSW 16.1 mph 25.3 mph 0.00 in Snow Light Snow
9:09 AM 26.6 °F 13.1 °F 21.2 °F 80% 29.69 in 5.0 mi WSW 19.6 mph 27.6 mph 0.00 in Snow Light Snow
9:48 AM 28.4 °F 16.2 °F 23.0 °F 80% 29.70 in 10.0 mi WSW 17.3 mph 28.8 mph 0.00 in   Overcast
9:56 AM 28.9 °F 16.5 °F 23.0 °F 78% 29.72 in 10.0 mi WSW 18.4 mph 27.6 mph 0.00 in   Overcast
10:56 AM 32.0 °F 21.2 °F 23.0 °F 69% 29.70 in 10.0 mi WSW 16.1 mph - N/A   Mostly Cloudy
11:56 AM 35.1 °F 24.5 °F 21.9 °F 59% 29.69 in 10.0 mi WSW 18.4 mph 29.9 mph N/A   Mostly Cloudy
12:56 PM 37.0 °F 27.7 °F 21.9 °F 54% 29.65 in 10.0 mi SW 16.1 mph 27.6 mph N/A   Overcast
1:56 PM 39.9 °F 30.5 °F 23.0 °F 51% 29.64 in 10.0 mi West 19.6 mph 33.4 mph N/A   Mostly Cloudy
2:56 PM 39.0 °F 28.3 °F 21.9 °F 50% 29.65 in 10.0 mi WNW 24.2 mph 43.7 mph N/A   Mostly Cloudy
3:56 PM 37.9 °F 28.2 °F 9.0 °F 30% 29.71 in 10.0 mi WNW 18.4 mph 31.1 mph N/A   Partly Cloudy
4:56 PM 36.0 °F 25.6 °F 12.0 °F 37% 29.75 in 10.0 mi NW 18.4 mph 25.3 mph N/A   Partly Cloudy
5:56 PM 30.9 °F 15.3 °F 1.0 °F 28% 29.84 in 10.0 mi WNW 34.5 mph 44.9 mph N/A   Partly Cloudy
6:56 PM 28.0 °F 14.6 °F 3.9 °F 36% 29.89 in 10.0 mi WNW 20.7 mph 31.1 mph N/A   Partly Cloudy
7:56 PM 26.1 °F 12.3 °F 3.0 °F 37% 29.93 in 10.0 mi WNW 19.6 mph 28.8 mph N/A   Partly Cloudy
8:56 PM 24.1 °F 12.0 °F 1.0 °F 37% 29.97 in 10.0 mi NW 13.8 mph 23.0 mph N/A   Scattered Clouds
9:56 PM 21.9 °F 11.7 °F 1.9 °F 42% 29.98 in 10.0 mi WNW 9.2 mph - N/A   Scattered Clouds
10:56 PM 19.0 °F 10.0 °F 3.0 °F 50% 29.99 in 10.0 mi WNW 6.9 mph - N/A   Partly Cloudy
11:56 PM 18.0 °F 7.7 °F 1.9 °F 50% 30.00 in 10.0 mi WNW 8.1 mph - N/A   Partly Cloudy